FENGYUN 1C DEB, 37042

Orbit data source: Space-Track

FENGYUN 1C DEB, 37042 is space debris in SSO originally from a launch on Mon, 10 May 1999 UTC launched from the Taiyaun Space Center, China (TSC). Fengyun 1C debris stems from the Chinese weather satellite Fengyun-1C, which was intentionally destroyed by a Chinese anti-satellite missile in 2007. This event dramatically increased the amount of space debris, with thousands of trackable fragments posing hazards to satellites and human spaceflight. The Fengyun 1C debris cloud has become a focal point in discussions about space sustainability and the need for international regulations to prevent the creation of new debris.

Loading next visibility...
Identifier
37042, 1999-025EEA
Orbit
SSO
Country
Flag of CNCN / PRC
Related business
Manufacturer
Unknown
Mission
Spacecraft
Bus & Motor
Unknown
Mass
Unknown
Launch date (UTC)
1999-05-10 (27 years ago)
Launch vehicle
Unknown
Launch site
Taiyaun Space Center, China (TSC)
Object type
Payload
Rocket body
Debris
Shape & HBR
Unknown shape, 0.1 m
Radar Cross Section
Small (<0.1 m²)

Expand to show TLE details & history
Last TLE update: 1 week ago

TLE from 1 week ago
0 FENGYUN 1C DEB
1 37042U 99025EEA 26137.20601101  .00010171  00000-0  12804-2 0  9998
2 37042  98.6006 272.4462 0047830 256.6088 102.9788 14.81437497750950
Epoch: 2026-05-17T04:56Z
TLE epoch observation values (Epoch: 2026-05-17T04:56:39.351Z)
Latitude
-0.00002°
Longitude
-36.62971°
Altitude
635.468 km
Speed
7.536 km/s
True Right ascension
18h 09m 47s
True Declination
0° 00' 00"
Sunlit
Object was in full shadow at epoch
Visualization orbit readout
Latitude
Unknown
Longitude
Unknown
Altitude
Unknown
Speed
Unknown
Apparent Right ascension
Unknown
Apparent Declination
Unknown
Sunlit
N/A
Visualization observer readout
Local Sidereal Time
16:32:12
Azimuth
Unknown
Elevation
Unknown
Doppler factor
Unknown
Orbital elements
Apogee altitude
655.343 km
Perigee altitude
588.381 km
Semi-major axis
6,999.999 km
Eccentricity
0.00478
Inclination
98.6006°
RAAN
272.4462°
Arg. of periapsis
256.6088°
True anomaly
103.51217°
Mean anomaly
102.9788°
Eccentric anomaly
103.24556°
Mean motion
3.70592 °/min
Orbital period
97.14 mins
BSTAR
0.0012804
Loading maneuver chart data...
Computing Atmospheric mass density...
Loading historical data...
Loading historical data...
Loading historical data...
Loading historical data...
Loading historical data...
Loading historical data...
Loading historical data...

Documentation

Showing up to 5 results
|